Saint Charles, IL

5:55 AM CST on December 06, 2016 (GMT -0600)
Du Page

Weather History for KDPA - March, 2014

Change the Weather History Date:

Tuesday, March 25, 2014

  Actual Average Record
Temperature  
Mean Temperature 24 °F 42 °F  
Max Temperature 30 °F 52 °F 79 °F (2007)
Min Temperature 17 °F 31 °F 17 °F (1999)
Degree Days  
Heating Degree Days 41 24  
Month to date heating degree days 940 702  
Since 1 July heating degree days 6716 5457  
Cooling Degree Days 0 0  
Month to date cooling degree days 0 0  
Year to date cooling degree days 0 0  
Moisture  
Dew Point 14 °F    
Average Humidity 64    
Maximum Humidity 92    
Minimum Humidity 37    
Precipitation  
Precipitation T in 0.08 in 0.17 in (2004)
Month to date precipitation 0.28 1.85  
Year to date precipitation 1.50 4.58  
Sea Level Pressure  
Sea Level Pressure 30.12 in    
Wind  
Wind Speed 13 mph (WNW)    
Max Wind Speed 25 mph    
Max Gust Speed 37 mph    
Visibility 9 miles    
Events Snow    
T = Trace of Precipitation, MM = Missing Value Source: NWS Daily Summary

Daily Weather History Graph

Daily Weather History Graph

Search for Another Location

Airport or City:

Trip Planner

Search our weather history database for the weather conditions in past years. The results will help you decide how hot, cold, wet, or windy it might be!

Date:

Astronomy

Mar. 25, 2014 Rise Set
Actual Time 6:47 AM CDT 7:10 PM CDT
Civil Twilight 6:19 AM CDT 7:38 PM CDT
Nautical Twilight 5:47 AM CDT 8:11 PM CDT
Astronomical Twilight 5:13 AM CDT 8:45 PM CDT
Moon 3:13 AM CDT (3/25) 1:36 PM CDT (3/25)
Length of Visible Light 13h 18m
Length of Day
12h 23m
Waning Crescent, 32% of the Moon is Illuminated
Mar 25
Waning Crescent
Mar 30
New
Apr 7
First Quarter
Apr 15
Full
Apr 22
Last Quarter

Hourly Weather History & Observations

Time (CDT) Temp. Windchill Dew Point Humidity Pressure Visibility Wind Dir Wind Speed Gust Speed Precip Events Conditions
12:52 AM 30.0 °F 23.2 °F 23.0 °F 75% 30.06 in 10.0 mi WSW 6.9 mph - N/A   Overcast
1:30 AM 30.0 °F 16.0 °F 24.1 °F 79% 30.03 in 1.2 mi West 25.3 mph 33.4 mph 0.00 in Snow Light Snow
1:38 AM 28.9 °F - 24.1 °F 82% 30.03 in - North - - 0.00 in   Unknown
1:52 AM 27.0 °F 19.5 °F 25.0 °F 92% 30.04 in 1.0 mi West 6.9 mph - 0.00 in Snow Light Snow
2:01 AM 27.0 °F 19.5 °F 24.1 °F 89% 30.01 in 3.0 mi West 6.9 mph - 0.00 in Snow Light Snow
2:52 AM 26.1 °F 17.6 °F 21.9 °F 84% 30.03 in 7.0 mi West 8.1 mph - 0.00 in Snow Light Snow
3:22 AM 26.1 °F 18.4 °F 21.9 °F 84% 30.00 in 10.0 mi West 6.9 mph - 0.00 in   Overcast
3:52 AM 26.1 °F 15.6 °F 21.0 °F 81% 30.02 in 10.0 mi WNW 11.5 mph - 0.00 in   Overcast
4:52 AM 25.0 °F 11.3 °F 19.0 °F 78% 30.03 in 9.0 mi NNW 18.4 mph 27.6 mph 0.00 in   Overcast
5:52 AM 21.9 °F 12.5 °F 15.1 °F 75% 30.05 in 10.0 mi NW 8.1 mph - 0.00 in   Partly Cloudy
6:52 AM 21.0 °F - 12.9 °F 71% 30.06 in - North - - N/A   Unknown
7:52 AM 23.0 °F 11.7 °F 15.1 °F 72% 30.07 in 10.0 mi WNW 11.5 mph - N/A   Clear
8:52 AM 24.1 °F 9.0 °F 14.0 °F 65% 30.09 in 8.0 mi WNW 21.9 mph 26.5 mph N/A   Overcast
9:16 AM 23.0 °F 10.1 °F 16.0 °F 74% 30.07 in 5.0 mi NW 15.0 mph - 0.00 in   Overcast
9:52 AM 25.0 °F 12.6 °F 15.1 °F 66% 30.11 in 10.0 mi NW 15.0 mph - 0.00 in   Overcast
10:52 AM 25.0 °F - 14.0 °F 63% 30.14 in - North - - N/A   Unknown
11:52 AM 27.0 °F 13.2 °F 12.0 °F 53% 30.15 in 10.0 mi NNW 20.7 mph 28.8 mph 0.00 in   Mostly Cloudy
12:52 PM 26.1 °F 13.1 °F 10.9 °F 53% 30.14 in 10.0 mi NW 17.3 mph 24.2 mph N/A   Mostly Cloudy
1:52 PM 27.0 °F 15.2 °F 9.0 °F 47% 30.16 in 10.0 mi NW 15.0 mph 24.2 mph N/A   Mostly Cloudy
2:52 PM 28.0 °F 15.7 °F 8.1 °F 43% 30.16 in 10.0 mi WNW 17.3 mph 23.0 mph N/A   Mostly Cloudy
3:52 PM 27.0 °F 13.5 °F 6.1 °F 41% 30.16 in 10.0 mi WNW 19.6 mph 24.2 mph N/A   Mostly Cloudy
4:52 PM 28.0 °F 15.3 °F 6.1 °F 39% 30.17 in 10.0 mi NW 18.4 mph 25.3 mph N/A   Partly Cloudy
5:52 PM 27.0 °F 15.6 °F 3.9 °F 37% 30.18 in 10.0 mi NW 13.8 mph 21.9 mph N/A   Partly Cloudy
6:52 PM 25.0 °F 11.3 °F 5.0 °F 43% 30.20 in 10.0 mi West 18.4 mph - N/A   Unknown
7:52 PM 24.1 °F 13.1 °F 6.1 °F 46% 30.21 in 10.0 mi WNW 11.5 mph - N/A   Partly Cloudy
8:52 PM 21.9 °F 12.5 °F 7.0 °F 53% 30.23 in 10.0 mi WNW 8.1 mph - N/A   Clear
9:52 PM 21.9 °F 10.4 °F 8.1 °F 55% 30.24 in 10.0 mi WNW 11.5 mph - N/A   Clear
10:52 PM 19.9 °F 10.1 °F 8.1 °F 60% 30.26 in 10.0 mi West 8.1 mph - N/A   Clear
11:52 PM 19.9 °F 9.3 °F 8.1 °F 60% 30.26 in 10.0 mi NW 9.2 mph - N/A   Clear